This is the latest recevied weather packets stored in our database for station/object VU3CAM-13. If no packets are shown the sender has not sent any weather packets the latest 10 day(s).
| Time | Temp. | Humidity | Pressure | Rain* | Wind** | Luminosity | Snow |
|---|---|---|---|---|---|---|---|
| 1788561023 | 27.22° C | 66% | 911.8 hPa | - | - | - | - |
| 1788559823 | 27.78° C | 65% | 911.7 hPa | - | - | - | - |
| 1788557423 | 27.22° C | 67% | 911.8 hPa | - | - | - | - |
| 1788556228 | 27.78° C | 67% | 911.8 hPa | - | - | - | - |
| 1788554423 | 27.78° C | 68% | 911.9 hPa | - | - | - | - |
| 1788553823 | 27.78° C | 68% | 911.9 hPa | - | - | - | - |
| 1788552623 | 27.78° C | 68% | 912.2 hPa | - | - | - | - |
| 1788550075 | 28.33° C | 69% | 912.5 hPa | - | - | - | - |
| 1788549475 | 28.33° C | 69% | 912.6 hPa | - | - | - | - |
| 1788546475 | 28.33° C | 68% | 912.8 hPa | - | - | - | - |
| 1788544675 | 28.33° C | 65% | 912.9 hPa | - | - | - | - |
| 1788543475 | 28.33° C | 64% | 913.1 hPa | - | - | - | - |
| 1788542875 | 28.89° C | 64% | 913.2 hPa | - | - | - | - |
| 1788542275 | 28.33° C | 65% | 913.2 hPa | - | - | - | - |
| 1788541075 | 28.89° C | 65% | 913.5 hPa | - | - | - | - |
| 1788540475 | 28.89° C | 64% | 913.5 hPa | - | - | - | - |
| 1788539275 | 28.89° C | 62% | 913.4 hPa | - | - | - | - |
| 1788537903 | 28.89° C | 58% | 913.1 hPa | - | - | - | - |
| 1788537303 | 29.44° C | 58% | 912.9 hPa | - | - | - | - |
| 1788536103 | 29.44° C | 58% | 912.7 hPa | - | - | - | - |
| 1788535503 | 30° C | 58% | 912.6 hPa | - | - | - | - |
| 1788534903 | 30° C | 58% | 912.5 hPa | - | - | - | - |
| 1788534303 | 30° C | 58% | 912.2 hPa | - | - | - | - |
| 1788532503 | 30° C | 58% | 911.8 hPa | - | - | - | - |
| 1788531903 | 30° C | 58% | 911.7 hPa | - | - | - | - |
* Rain since midnight (hover to see other rain measurements)
** Current wind speed in m/s (hover to see current wind gust speed)